This is the latest recevied weather packets stored in our database for station/object KB0VMZ. If no packets are shown the sender has not sent any weather packets the latest 10 day(s).
| Time | Temp. | Humidity | Pressure | Rain* | Wind** | Luminosity | Snow |
|---|---|---|---|---|---|---|---|
| 1788577831 | 27.22° C | 100% | 0 hPa | 0 mm | 0.89 m/s, 225° | - | - |
| 1788577231 | 27.22° C | 100% | 0 hPa | 0 mm | 0.89 m/s, 202° | - | - |
| 1788576631 | 27.22° C | 100% | 0 hPa | 0 mm | 0.45 m/s, 157° | - | - |
| 1788576031 | 27.78° C | 100% | 0 hPa | 0 mm | 0.89 m/s, 180° | - | - |
| 1788575431 | 27.78° C | 100% | 0 hPa | 0 mm | 1.34 m/s, 180° | - | - |
| 1788574831 | 28.33° C | 100% | 0 hPa | 0 mm | 0.89 m/s, 180° | - | - |
| 1788574231 | 28.33° C | 100% | 0 hPa | 0 mm | 0 m/s | - | - |
| 1788573631 | 28.33° C | 100% | 0 hPa | 0 mm | 0.89 m/s, 180° | - | - |
| 1788573032 | 28.33° C | 100% | 0 hPa | 0 mm | 0.89 m/s, 180° | - | - |
| 1788572457 | 28.89° C | 100% | 0 hPa | 0 mm | 1.34 m/s, 180° | - | - |
| 1788571832 | 28.89° C | 100% | 0 hPa | 0 mm | 0.45 m/s, 90° | - | - |
| 1788571232 | 28.89° C | 100% | 0 hPa | 0 mm | 0 m/s | - | - |
| 1788570636 | 29.44° C | 100% | 0 hPa | 0 mm | 0 m/s | - | - |
| 1788570032 | 30° C | 100% | 0 hPa | 0 mm | 0.89 m/s, 225° | - | - |
| 1788569432 | 30° C | 100% | 0 hPa | 0 mm | 2.24 m/s, 180° | - | - |
| 1788568854 | 30° C | 100% | 0 hPa | 0 mm | 1.34 m/s, 225° | - | - |
| 1788568232 | 30° C | 100% | 0 hPa | 0 mm | 1.79 m/s, 180° | - | - |
| 1788567632 | 30.56° C | 100% | 0 hPa | 0 mm | 0.45 m/s, 135° | - | - |
| 1788567032 | 30.56° C | 100% | 0 hPa | 0 mm | 1.34 m/s, 225° | - | - |
| 1788566432 | 30.56° C | 100% | 0 hPa | 0 mm | 1.79 m/s, 202° | - | - |
| 1788565832 | 31.11° C | 100% | 0 hPa | 0 mm | 1.34 m/s, 225° | - | - |
| 1788565232 | 31.11° C | 100% | 0 hPa | 0 mm | 0.89 m/s, 180° | - | - |
| 1788564632 | 31.67° C | 100% | 0 hPa | 0 mm | 1.34 m/s, 180° | - | - |
| 1788564032 | 31.67° C | 100% | 0 hPa | 0 mm | 0.45 m/s, 225° | - | - |
| 1788563432 | 32.22° C | 100% | 0 hPa | 0 mm | 0.89 m/s, 180° | - | - |
* Rain latest hour (hover to see other rain measurements)
** Current wind speed in m/s (hover to see current wind gust speed)